DW5010 Weather Reports


time (UTC)temp
F
wind
direction
speed
knots
gust
knots
rain 1hr
in
rain 24hr
in
rain mn
in
humidity
%
barometer
mb
20260503204530 66 219 4.3 18.2 0.00 0.00 0.00 50 1004.8
20260503204016 65 219 7.0 18.2 0.00 0.00 0.00 50 1004.8
20260503203515 65 115 6.1 16.5 0.00 0.00 0.00 50 1004.8
20260503203031 65 157 7.8 20.0 0.00 0.00 0.00 50 1005.2
20260503202513 65 285 8.7 20.0 0.00 0.00 0.00 50 1005.4
20260503202013 64 209 7.8 20.0 0.00 0.00 0.00 50 1005.5
20260503201530 64 170 10.4 24.3 0.00 0.00 0.00 49 1005.7
20260503201016 64 188 7.0 25.2 0.00 0.00 0.00 51 1005.7
20260503200519 63 184 10.4 25.2 0.00 0.00 0.00 49 1005.9
20260503200032 63 185 10.4 26.1 0.00 0.00 0.00 49 1006.0
20260503195512 64 224 12.2 26.1 0.00 0.00 0.00 47 1005.9
20260503195018 65 232 12.2 32.2 0.00 0.00 0.00 45 1005.9
20260503194530 65 217 13.0 32.2 0.00 0.00 0.00 44 1005.7
20260503194015 65 233 12.2 24.3 0.00 0.00 0.00 44 1005.8
20260503193518 65 232 10.4 24.3 0.00 0.00 0.00 43 1005.9
20260503193030 65 186 8.7 25.2 0.00 0.00 0.00 43 1005.9
20260503192514 66 245 12.2 25.2 0.00 0.00 0.00 42 1006.0
20260503192015 66 208 8.7 20.9 0.00 0.00 0.00 42 1005.9
20260503191534 65 219 7.8 19.1 0.00 0.00 0.00 45 1005.9
20260503191015 65 239 9.6 19.1 0.00 0.00 0.00 44 1006.0
20260503190516 65 188 8.7 20.9 0.00 0.00 0.00 45 1006.0
20260503190030 65 198 8.7 20.9 0.00 0.00 0.00 45 1006.1
20260503185515 64 196 7.0 21.7 0.00 0.00 0.00 44 1006.2
20260503185015 64 211 11.3 24.3 0.00 0.00 0.00 45 1006.4
20260503184528 64 184 8.7 24.3 0.00 0.00 0.00 47 1006.3
20260503184015 63 192 8.7 21.7 0.00 0.00 0.00 46 1006.5
20260503183514 63 225 10.4 26.9 0.00 0.00 0.00 45 1006.3
20260503183030 63 158 8.7 27.8 0.00 0.00 0.00 49 1006.5
20260503182512 62 184 10.4 27.8 0.00 0.00 0.00 50 1006.6
20260503182016 62 158 8.7 19.1 0.00 0.00 0.00 53 1006.8
20260503181530 62 173 7.0 19.1 0.00 0.00 0.00 54 1006.7
20260503181015 61 191 7.8 21.7 0.00 0.00 0.00 54 1006.8
20260503180516 61 175 9.6 21.7 0.00 0.00 0.00 53 1006.9
20260503180032 61 151 7.0 21.7 0.00 0.00 0.00 56 1006.9
20260503175516 60 270 6.1 23.5 0.00 0.00 0.00 55 1007.1
20260503175015 60 218 7.8 23.5 0.00 0.00 0.00 54 1007.1
20260503174532 60 209 8.7 22.6 0.00 0.00 0.00 55 1007.5
20260503174014 59 128 7.0 19.1 0.00 0.00 0.00 56 1007.4
20260503173514 59 202 9.6 19.1 0.00 0.00 0.00 56 1007.6
20260503173030 59 173 7.0 19.1 0.00 0.00 0.00 55 1007.7
20260503172516 59 202 7.8 19.1 0.00 0.00 0.00 57 1007.7
20260503172015 58 181 7.0 19.1 0.00 0.00 0.00 59 1007.8
20260503171531 57 227 8.7 17.4 0.00 0.00 0.00 58 1008.0
20260503171017 57 230 5.2 13.9 0.00 0.00 0.00 60 1008.0
20260503170515 57 182 6.1 16.5 0.00 0.00 0.00 61 1008.1
20260503151014 58 238 7.0 24.3 0.00 0.00 0.00 54 1009.4
20260503150514 58 221 7.8 24.3 0.00 0.00 0.00 53 1009.4
20260503131018 52 198 5.2 13.9 0.00 0.00 0.00 56 1010.5
20260503130514 51 268 6.1 14.8 0.00 0.00 0.00 57 1010.5
20260503110515 48 211 6.1 12.2 0.00 0.00 0.00 54 1010.3
20260503081528 49 223 4.3 13.9 0.00 0.00 0.00 51 1011.5
20260503081017 48 198 4.3 11.3 0.00 0.00 0.00 52 1011.5
20260503080514 48 216 4.3 10.4 0.00 0.00 0.00 52 1011.5
20260503072512 47 180 1.7 7.0 0.00 0.00 0.00 55 1011.7
20260503072012 46 163 2.6 7.0 0.00 0.00 0.00 55 1011.8
20260503071536 46 209 2.6 7.0 0.00 0.00 0.00 56 1011.8
20260503071011 46 197 2.6 7.0 0.00 0.00 0.00 56 1011.9
20260503070512 46 145 3.5 7.0 0.00 0.00 0.00 57 1011.9
20260503055014 42 0 0.0 3.5 0.00 0.00 0.00 66 1012.4
20260503054535 42 192 0.0 3.5 0.00 0.00 0.00 66 1012.5
20260503054015 42 0 0.0 3.5 0.00 0.00 0.00 67 1012.4
20260503053513 42 240 0.0 3.5 0.00 0.00 0.00 68 1012.5
20260503053033 42 182 0.9 3.5 0.00 0.00 0.00 68 1012.5
20260503052514 41 0 0.9 3.5 0.00 0.00 0.00 69 1012.5
20260503052017 41 183 0.0 3.5 0.00 0.00 0.00 70 1012.7
20260503051535 41 189 0.0 3.5 0.00 0.00 0.00 72 1012.7
20260503051012 40 173 0.0 3.5 0.00 0.00 0.00 72 1012.7
20260503050514 40 196 0.9 2.6 0.00 0.00 0.00 72 1012.8
20260503050037 40 0 0.9 2.6 0.00 0.00 0.00 73 1012.8
20260503045514 40 0 0.0 2.6 0.00 0.00 0.00 73 1012.7
20260503045018 40 0 0.0 2.6 0.00 0.00 0.00 74 1012.8
20260503044532 40 0 0.0 5.2 0.00 0.00 0.00 74 1012.9
20260503044013 40 0 0.0 5.2 0.00 0.00 0.00 74 1012.8
20260503043513 40 0 0.0 1.7 0.00 0.00 0.00 74 1012.9
20260503043031 40 159 0.0 1.7 0.00 0.00 0.00 74 1012.9
20260503042514 40 173 0.0 3.5 0.00 0.00 0.00 74 1013.0
20260503042014 40 0 0.9 4.3 0.00 0.00 0.00 74 1013.0
20260503041537 40 0 0.9 4.3 0.00 0.00 0.00 74 1013.0
20260503041013 40 0 0.0 2.6 0.00 0.00 0.00 74 1013.0
20260503040513 41 0 0.0 2.6 0.00 0.00 0.00 74 1013.1
20260503040029 41 0 0.0 4.3 0.00 0.00 0.00 74 1013.1
20260503035513 41 180 0.9 4.3 0.00 0.00 0.00 74 1013.1
20260503035013 41 0 0.9 3.5 0.00 0.00 0.00 74 1013.2
20260503034531 41 182 0.0 3.5 0.00 0.00 0.00 74 1013.2
20260503034015 41 194 0.9 4.3 0.00 0.00 0.00 73 1013.2
20260503033511 41 0 0.9 4.3 0.00 0.00 0.00 73 1013.3
20260503033033 42 175 0.0 3.5 0.00 0.00 0.00 73 1013.3
20260503032518 42 0 0.9 3.5 0.00 0.00 0.00 73 1013.3
20260503032015 42 175 0.0 3.5 0.00 0.00 0.00 73 1013.3
20260503031531 42 190 0.9 2.6 0.00 0.00 0.00 73 1013.5
20260503031014 42 136 0.9 4.3 0.00 0.00 0.00 72 1013.5
20260503030513 42 150 0.9 4.3 0.00 0.00 0.00 72 1013.6
20260503030036 42 168 0.9 3.5 0.00 0.00 0.00 71 1013.7
20260503025510 42 0 0.9 5.2 0.00 0.00 0.00 71 1013.7
20260503025011 43 151 0.9 5.2 0.00 0.00 0.00 71 1013.8
20260503024530 43 0 0.9 5.2 0.00 0.00 0.00 71 1013.7
20260503024014 43 202 0.9 5.2 0.00 0.00 0.00 70 1013.8
20260503023513 43 190 1.7 4.3 0.00 0.00 0.00 70 1013.8
20260503023031 43 134 1.7 6.1 0.00 0.00 0.00 69 1013.8
20260503022513 43 173 0.9 6.1 0.00 0.00 0.00 69 1013.7
20260503022010 43 149 1.7 6.1 0.00 0.00 0.00 69 1013.8
20260503021529 43 194 0.9 6.1 0.00 0.00 0.00 68 1013.7
20260503021013 43 157 1.7 6.1 0.00 0.00 0.00 67 1013.8
20260503020511 44 167 0.9 7.8 0.00 0.00 0.00 67 1013.7
20260503020031 44 0 0.9 7.8 0.00 0.00 0.00 67 1013.7
20260503015514 44 119 2.6 6.1 0.00 0.00 0.00 66 1013.6
20260503015014 44 169 0.9 4.3 0.00 0.00 0.00 66 1013.6
20260503014530 44 173 1.7 5.2 0.00 0.00 0.00 65 1013.5
20260503014015 44 148 1.7 5.2 0.00 0.00 0.00 65 1013.5
20260503013515 44 166 1.7 5.2 0.00 0.00 0.00 64 1013.5
20260503013036 45 119 0.9 4.3 0.00 0.00 0.00 64 1013.5
20260503012515 45 133 1.7 4.3 0.00 0.00 0.00 64 1013.6
20260503012015 45 130 1.7 4.3 0.00 0.00 0.00 63 1013.5
20260503011530 45 164 0.9 4.3 0.00 0.00 0.00 63 1013.5
20260503011014 45 130 1.7 4.3 0.00 0.00 0.00 62 1013.5
20260503010515 46 128 0.9 5.2 0.00 0.00 0.00 62 1013.6
20260503010036 46 158 1.7 5.2 0.00 0.00 0.00 61 1013.5
20260503005515 46 166 1.7 6.1 0.00 0.00 0.00 60 1013.5
20260503005016 46 146 0.9 6.1 0.00 0.00 0.00 60 1013.5
20260503004530 47 0 0.9 6.1 0.00 0.00 0.00 59 1013.5
20260503004016 47 153 1.7 7.8 0.00 0.00 0.00 58 1013.5
20260503003515 47 136 0.9 7.8 0.00 0.00 0.00 57 1013.6
20260503003028 48 126 1.7 5.2 0.00 0.00 0.00 57 1013.6
20260503002515 48 143 1.7 7.0 0.00 0.00 0.00 56 1013.7
20260503002015 48 110 2.6 7.0 0.00 0.00 0.00 56 1013.7
20260503001541 48 149 2.6 7.8 0.00 0.00 0.00 55 1013.7
20260503001015 48 159 2.6 7.8 0.00 0.00 0.00 54 1013.8
20260503000515 49 119 2.6 7.0 0.00 0.00 0.00 54 1013.8
20260503000030 49 0 2.6 6.1 0.00 0.00 0.00 53 1013.7
20260502235514 49 143 1.7 7.0 0.00 0.00 0.00 53 1013.8
20260502235015 49 165 2.6 7.0 0.00 0.00 0.00 52 1013.8
20260502234537 50 162 1.7 7.0 0.00 0.00 0.00 53 1013.9
20260502234019 50 130 3.5 7.0 0.00 0.00 0.00 51 1013.9
20260502233518 50 129 2.6 7.0 0.00 0.00 0.00 52 1014.0
20260502233029 50 128 2.6 7.0 0.00 0.00 0.00 53 1014.1
20260502232517 50 157 1.7 7.0 0.00 0.00 0.00 52 1014.1
20260502232012 50 119 1.7 7.0 0.00 0.00 0.00 51 1014.1
20260502231530 51 94 3.5 7.0 0.00 0.00 0.00 50 1014.2
20260502231015 51 101 2.6 7.0 0.00 0.00 0.00 51 1014.2
20260502230515 50 112 2.6 7.0 0.00 0.00 0.00 51 1014.3
20260502230034 50 187 3.5 7.0 0.00 0.00 0.00 51 1014.2
20260502225514 51 181 2.6 7.8 0.00 0.00 0.00 51 1014.3
20260502225020 51 138 2.6 7.8 0.00 0.00 0.00 50 1014.4
20260502224532 51 192 1.7 7.8 0.00 0.00 0.00 50 1014.5
20260502224015 51 141 3.5 7.8 0.00 0.00 0.00 52 1014.5
20260502223515 51 135 2.6 7.8 0.00 0.00 0.00 50 1014.5
20260502223032 51 111 2.6 7.8 0.00 0.00 0.00 52 1014.5
20260502222515 51 134 1.7 8.7 0.00 0.00 0.00 51 1014.6
20260502222014 51 126 5.2 8.7 0.00 0.00 0.00 49 1014.6
20260502221532 51 142 4.3 8.7 0.00 0.00 0.00 49 1014.6
20260502221015 52 126 2.6 8.7 0.00 0.00 0.00 49 1014.7
20260502220515 52 132 3.5 9.6 0.00 0.00 0.00 48 1014.7
20260502220030 53 115 4.3 9.6 0.00 0.00 0.00 47 1014.8
20260502215516 52 138 3.5 8.7 0.00 0.00 0.00 51 1014.7
20260502215016 52 86 4.3 8.7 0.00 0.00 0.00 48 1014.7
20260502214531 52 116 3.5 7.8 0.00 0.00 0.00 49 1014.7
20260502214015 52 136 4.3 7.8 0.00 0.00 0.00 46 1014.8
20260502213515 53 96 2.6 8.7 0.00 0.00 0.00 47 1014.9
20260502213030 53 115 2.6 8.7 0.00 0.00 0.00 48 1015.0
20260502212518 52 126 3.5 8.7 0.00 0.00 0.00 48 1015.0
20260502212014 52 148 0.9 7.0 0.00 0.00 0.00 52 1015.0
20260502211530 52 104 3.5 7.8 0.00 0.00 0.00 49 1015.0
20260502211018 52 97 2.6 7.8 0.00 0.00 0.00 48 1015.2
20260502210514 52 138 1.7 7.0 0.00 0.00 0.00 49 1015.2
20260502210031 52 112 1.7 8.7 0.00 0.00 0.00 48 1015.3
20260502205517 52 126 3.5 9.6 0.00 0.00 0.00 47 1015.2
20260502205016 53 140 3.5 9.6 0.00 0.00 0.00 47 1015.3